Regional Weather Roundup
Issued by NWS Newport/Morehead, NC

Current Version | Previous Version | Text Only | Print | Product List | Glossary On
Versions: 1 2 3 4 5 6 7 8 9 10 11 12 13 14 15 16 17 18 19 20 21 22 23 24 25 26 27 28 29 30 31 32 33 34 35 36 37 38 39 40 41 42 43 44 45 46 47 48 49 50
000
ASUS42 KMHX 241912
RWRMHX
WEATHER ROUNDUP FOR EASTERN NORTH CAROLINA
NATIONAL WEATHER SERVICE NEWPORT/MOREHEAD CITY NC
300 PM EDT FRI APR 24 2015

NOTE: "FAIR" INDICATES FEW OR NO CLOUDS BELOW 12,000 FEET
WITH NO SIGNIFICANT WEATHER AND/OR OBSTRUCTIONS TO VISIBILITY

NCZ015>017-031-032-045>047-102-103-242000-
NORTH COAST

CITY           SKY/WX    TMP DP  RH WIND       PRES   REMARKS
EDENTON        SUNNY     63  27  25 NW13      29.98F
ELIZABETH CITY SUNNY     62  27  26 W14G23    29.97F
KITTY HAWK     CLEAR     53  37  55 NE7       29.96F
MANTEO         SUNNY     55  39  55 NE7       29.98F

$$

NCZ045>047-081-094-103-104-242000-
CENTRAL COAST

CITY           SKY/WX    TMP DP  RH WIND       PRES   REMARKS
FRISCO         SUNNY     55  39  54 VRB5      29.98F
SWANQUARTER      N/A     64 N/A N/A NW12G24   29.94S

$$

NCZ095-097-098-100-101-242000-
SOUTHERN COAST

CITY           SKY/WX    TMP DP  RH WIND       PRES   REMARKS
BEAUFORT       SUNNY     66  31  27 NW7       29.99F
CEDAR ISLAND     N/A     63 N/A N/A NW12      30.03S
JACKSONVILLE   NOT AVBL
PINEY ISLAND   CLEAR    N/A N/A N/A N12       29.98F
WILMINGTON     SUNNY     69  29  22 NW9       30.01F


$$

NCZ011>013-027>030-043-044-078>080-089-090>093-098-242000-
COASTAL PLAIN

CITY           SKY/WX    TMP DP  RH WIND       PRES   REMARKS
AHOSKIE        SUNNY     61  26  26 NW6       29.98F
CLINTON        SUNNY     66  31  26 W5        30.01F
ELIZABETHTOWN  SUNNY     68  24  19 NW6       30.01F
GOLDSBORO      SUNNY     66  21  18 NW10G16   29.99S
GREENVILLE     SUNNY     64  28  25 NW9       30.00F
HAVELOCK       NOT AVBL
KENANSVILLE    SUNNY     65  23  20 NW8       30.01F
KINSTON        SUNNY     66  25  20 W8        30.01F
NEW BERN       SUNNY     67  31  26 W10       30.00F
RICHLANDS      SUNNY     66  28  24 W6        30.01F
ROCKY MOUNT    SUNNY     65  22  19 W13G24    30.01F
WASHINGTON     SUNNY     63  28  26 NW13      29.99F
WHITEVILLE     SUNNY     68  25  19 N6        30.01F

$$

AMZ130-135-150-152-154-156-158-170-250-252-270-ANZ085-086-088-633-658-670-242000-
MARINE OBSERVATIONS

STATION/POSITION TIME  TEMP    WIND        PRES    WAVE   SWELL
                       AIR SEA DIR/SP/G            HT/PER HT/PER
                 (UTC) (F)     (DEG/KT/KT) (MB)    (FT/S) (FT/S)
CHESAPEAKE LIGHT 1900   52     320/ 13/ 14 1015.2
64 E VA BEACH    1850   49 59  320/ 19/ 23 1014.1    7/ 7   2/11
DUCK             1800   49 55   40/ 11/ 13 1014.4
2 E DUCK         1811      54                N/A     5/ 5   2/14
10 NE DUCK       NOT AVBL
OREGON INLET     1800   50 61   20/ 11/ 15 1015.8
HATTERAS CG      1800   55 65   20/  9/ 13 1015.0
DIAMOND BUOY     1850   55 73   10/  8/ 12 1015.5    4/ 6   5/ 6
CAPE LOOKOUT     1900   63     310/  7/ 11 1015.5
BEAUFORT LAB     1800   62 63  320/  6/ 11 1014.9
27 SE WRIGHTSVLE 1800   56 70  360/  4/  6   N/A
5 SE WRIGHTSVLE  1808   63 66  330/  8/ 12 1016.8
225 S CAPE HAT   1850   66 71  360/ 17/ 21 1014.7    7/ 7   3/15
41 SE CHARLESTON 1850   62 72   40/ 12/ 16 1017.3    6/ 7   5/ 7

$$



USA.gov is the U.S. government's official web portal to all federal, state and local government web resources and services.